MSR740 OJAI-HECA

Flight info

Callsign MSR740
Flight time 1h 7m
Altitude 32000
Route MUVIN L53 TALMI T99 TOMAL J10 AMMIT Y64 MIRTA Q163 FIKER DCT ELIGI V606 LONIR
Aircraft A320/M-SDE3FGHIRWY/LB1

Departure

Time 2026-05-04 12:32
Airport Queen Alia International Airport (OJAI)

Arrival

Time 2026-05-04 13:39
Airport Cairo International Airport (HECA)
Time Latitude Longitude Altitude Speed Heading
2026-05-04 12:02 31.72417 35.98853 2418 ft 0 kts 159°
2026-05-04 12:20 31.72418 35.98853 2418 ft 1 kts 159°
2026-05-04 12:20 31.72441 35.98842 2413 ft 4 kts 158°
2026-05-04 12:20 31.72466 35.98832 2416 ft 4 kts 160°
2026-05-04 12:21 31.72490 35.98819 2416 ft 4 kts 140°
2026-05-04 12:21 31.72503 35.98797 2418 ft 3 kts 84°
2026-05-04 12:21 31.72503 35.98792 2418 ft 0 kts 80°
2026-05-04 12:24 31.72503 35.98795 2418 ft 1 kts 80°
2026-05-04 12:25 31.72506 35.98815 2418 ft 4 kts 80°
2026-05-04 12:25 31.72513 35.98862 2418 ft 8 kts 79°
2026-05-04 12:25 31.72548 35.98917 2418 ft 10 kts 20°
2026-05-04 12:25 31.72617 35.98910 2417 ft 10 kts 348°
2026-05-04 12:26 31.72679 35.98947 2418 ft 11 kts 60°
2026-05-04 12:26 31.72696 35.99041 2418 ft 13 kts 80°
2026-05-04 12:26 31.72712 35.99147 2418 ft 14 kts 80°
2026-05-04 12:26 31.72728 35.99264 2418 ft 15 kts 80°
2026-05-04 12:27 31.72746 35.99388 2418 ft 16 kts 80°
2026-05-04 12:27 31.72766 35.99522 2416 ft 17 kts 80°
2026-05-04 12:27 31.72782 35.99632 2416 ft 14 kts 80°
2026-05-04 12:27 31.72800 35.99749 2417 ft 15 kts 79°
2026-05-04 12:28 31.72817 35.99864 2418 ft 13 kts 80°
2026-05-04 12:28 31.72833 35.99977 2417 ft 15 kts 80°
2026-05-04 12:28 31.72851 36.00097 2418 ft 16 kts 80°
2026-05-04 12:28 31.72867 36.00207 2416 ft 12 kts 80°
2026-05-04 12:29 31.72882 36.00310 2418 ft 13 kts 80°
2026-05-04 12:29 31.72898 36.00423 2417 ft 15 kts 80°
2026-05-04 12:29 31.72916 36.00545 2418 ft 16 kts 80°
2026-05-04 12:29 31.72936 36.00679 2418 ft 17 kts 80°
2026-05-04 12:30 31.72983 36.00783 2418 ft 15 kts 21°
2026-05-04 12:30 31.73089 36.00776 2417 ft 16 kts 352°
2026-05-04 12:30 31.73205 36.00745 2416 ft 18 kts 334°
2026-05-04 12:30 31.73209 36.00643 2416 ft 13 kts 259°
2026-05-04 12:31 31.73199 36.00574 2416 ft 9 kts 260°
2026-05-04 12:31 31.73160 36.00312 2417 ft 64 kts 260°
2026-05-04 12:31 31.73053 35.99571 2417 ft 117 kts 260°
2026-05-04 12:31 31.72891 35.98458 2429 ft 157 kts 256°
2026-05-04 12:32 31.72691 35.97178 2925 ft 159 kts 256°
2026-05-04 12:32 31.72304 35.94552 4056 ft 180 kts 262°
2026-05-04 12:32 31.72087 35.93006 4370 ft 204 kts 261°
2026-05-04 12:33 31.71842 35.91268 4743 ft 227 kts 261°
2026-05-04 12:33 31.71246 35.89503 5359 ft 244 kts 233°
2026-05-04 12:33 31.69768 35.88437 6190 ft 262 kts 200°
2026-05-04 12:33 31.67928 35.88174 7052 ft 271 kts 188°
2026-05-04 12:34 31.66029 35.88183 7891 ft 274 kts 186°
2026-05-04 12:34 31.64112 35.88200 8700 ft 277 kts 188°
2026-05-04 12:34 31.62179 35.88132 9473 ft 279 kts 189°
2026-05-04 12:34 31.60232 35.87968 10221 ft 282 kts 192°
2026-05-04 12:35 31.58277 35.87727 10968 ft 282 kts 194°
2026-05-04 12:35 31.56329 35.87439 11755 ft 282 kts 195°
2026-05-04 12:35 31.54383 35.87129 12538 ft 282 kts 196°
2026-05-04 12:35 31.52433 35.86810 13321 ft 283 kts 197°
2026-05-04 12:36 31.50480 35.86486 14050 ft 284 kts 197°
2026-05-04 12:36 31.48519 35.86157 14706 ft 285 kts 198°
2026-05-04 12:36 31.46531 35.85847 15218 ft 295 kts 196°
2026-05-04 12:36 31.44411 35.85582 15338 ft 318 kts 194°
2026-05-04 12:37 31.42140 35.85346 15467 ft 337 kts 193°
2026-05-04 12:37 31.39761 35.85125 15811 ft 347 kts 193°
2026-05-04 12:37 31.37338 35.84914 16356 ft 352 kts 193°
2026-05-04 12:37 31.34869 35.84697 16938 ft 358 kts 193°
2026-05-04 12:38 31.32390 35.84479 17685 ft 357 kts 193°
2026-05-04 12:38 31.29904 35.84254 18347 ft 359 kts 194°
2026-05-04 12:38 31.27414 35.84019 18876 ft 360 kts 194°
2026-05-04 12:38 31.24905 35.83771 19413 ft 363 kts 194°
2026-05-04 12:39 31.22377 35.83513 19947 ft 366 kts 194°
2026-05-04 12:39 31.19829 35.83250 20464 ft 369 kts 195°
2026-05-04 12:39 31.17256 35.82987 20908 ft 373 kts 194°
2026-05-04 12:39 31.14654 35.82725 21370 ft 377 kts 195°
2026-05-04 12:40 31.12030 35.82466 21815 ft 380 kts 194°
2026-05-04 12:40 31.09381 35.82206 22266 ft 384 kts 195°
2026-05-04 12:40 31.06748 35.81948 22709 ft 387 kts 195°
2026-05-04 12:40 31.04020 35.81678 23153 ft 390 kts 195°
2026-05-04 12:41 31.01308 35.81411 23590 ft 393 kts 195°
2026-05-04 12:41 30.98580 35.81147 23960 ft 395 kts 195°
2026-05-04 12:41 30.95866 35.80886 24292 ft 398 kts 195°
2026-05-04 12:41 30.93097 35.80621 24618 ft 401 kts 195°
2026-05-04 12:42 30.90311 35.80349 24927 ft 403 kts 195°
2026-05-04 12:42 30.87505 35.80077 25223 ft 405 kts 195°
2026-05-04 12:42 30.84692 35.79804 25606 ft 406 kts 195°
2026-05-04 12:42 30.81943 35.79276 25954 ft 396 kts 204°
2026-05-04 12:43 30.79381 35.78217 26333 ft 387 kts 213°
2026-05-04 12:43 30.77001 35.76796 26668 ft 385 kts 216°
2026-05-04 12:43 30.74623 35.75341 26990 ft 387 kts 215°
2026-05-04 12:43 30.72227 35.73884 27295 ft 390 kts 215°
2026-05-04 12:44 30.69813 35.72424 27612 ft 392 kts 215°
2026-05-04 12:44 30.67387 35.70953 27943 ft 394 kts 215°
2026-05-04 12:44 30.64950 35.69475 28274 ft 396 kts 215°
2026-05-04 12:44 30.62503 35.67991 28607 ft 397 kts 215°
2026-05-04 12:45 30.60054 35.66503 29018 ft 397 kts 215°
2026-05-04 12:45 30.57614 35.65024 29510 ft 395 kts 215°
2026-05-04 12:45 30.55183 35.63550 29952 ft 394 kts 215°
2026-05-04 12:45 30.52756 35.62083 30056 ft 393 kts 215°
2026-05-04 12:46 30.50329 35.60621 30068 ft 393 kts 215°
2026-05-04 12:46 30.45486 35.57701 30065 ft 392 kts 215°
2026-05-04 12:47 30.40647 35.54774 30063 ft 392 kts 215°
2026-05-04 12:47 30.36597 35.52325 30013 ft 392 kts 215°
2026-05-04 12:48 30.31765 35.49404 30086 ft 395 kts 216°
2026-05-04 12:48 30.26892 35.46463 30065 ft 395 kts 215°
2026-05-04 12:49 30.21987 35.43567 30065 ft 399 kts 212°
2026-05-04 12:49 30.16663 35.41493 30025 ft 405 kts 206°
2026-05-04 12:50 30.11295 35.39507 30030 ft 405 kts 206°
2026-05-04 12:50 30.05925 35.37518 30037 ft 406 kts 206°
2026-05-04 12:51 30.00550 35.35526 30031 ft 406 kts 206°
2026-05-04 12:51 29.95173 35.33530 29993 ft 406 kts 206°
2026-05-04 12:52 29.89763 35.31527 30042 ft 409 kts 205°
2026-05-04 12:52 29.84332 35.29538 30041 ft 409 kts 205°
2026-05-04 12:53 29.78907 35.27553 30036 ft 409 kts 205°
2026-05-04 12:53 29.73492 35.25556 30004 ft 408 kts 205°
2026-05-04 12:54 29.68076 35.23561 30053 ft 409 kts 206°
2026-05-04 12:54 29.62658 35.21575 30057 ft 408 kts 206°
2026-05-04 12:55 29.57733 35.18690 30055 ft 390 kts 224°
2026-05-04 12:55 29.54044 35.14248 30011 ft 384 kts 234°
2026-05-04 12:56 29.50588 35.09530 30009 ft 387 kts 233°
2026-05-04 12:56 29.47128 35.04865 30009 ft 386 kts 233°
2026-05-04 12:57 29.43618 35.00134 30008 ft 387 kts 233°
2026-05-04 12:57 29.39737 34.95828 30040 ft 395 kts 220°
2026-05-04 12:58 29.35226 34.92287 29992 ft 396 kts 220°
2026-05-04 12:58 29.30678 34.88697 29997 ft 397 kts 220°
2026-05-04 12:59 29.26127 34.85107 30007 ft 397 kts 220°
2026-05-04 12:59 29.21572 34.81522 30003 ft 397 kts 220°
2026-05-04 13:00 29.17012 34.77938 29972 ft 399 kts 219°
2026-05-04 13:00 29.12420 34.74332 30000 ft 401 kts 219°
2026-05-04 13:01 29.07957 34.70562 30018 ft 394 kts 230°
2026-05-04 13:01 29.06347 34.68076 30013 ft 387 kts 244°
2026-05-04 13:01 29.05399 34.65215 30015 ft 385 kts 257°
2026-05-04 13:01 29.05142 34.62170 30015 ft 388 kts 270°
2026-05-04 13:02 29.05590 34.59117 30010 ft 394 kts 282°
2026-05-04 13:02 29.07303 34.53160 29991 ft 394 kts 284°
2026-05-04 13:03 29.09062 34.47216 30052 ft 395 kts 284°
2026-05-04 13:03 29.10817 34.41278 30062 ft 393 kts 284°
2026-05-04 13:04 29.12544 34.35378 30055 ft 390 kts 284°
2026-05-04 13:04 29.14248 34.29509 30059 ft 388 kts 284°
2026-05-04 13:05 29.15947 34.23650 30054 ft 388 kts 284°
2026-05-04 13:05 29.17646 34.17802 30068 ft 387 kts 284°
2026-05-04 13:05 29.18493 34.14876 29954 ft 388 kts 284°
2026-05-04 13:06 29.19339 34.11950 29937 ft 387 kts 284°
2026-05-04 13:06 29.21035 34.06092 29940 ft 388 kts 284°
2026-05-04 13:07 29.22726 34.00230 29939 ft 388 kts 284°
2026-05-04 13:07 29.24420 33.94366 29955 ft 387 kts 283°
2026-05-04 13:08 29.26108 33.88518 29953 ft 386 kts 283°
2026-05-04 13:08 29.27792 33.82675 29957 ft 386 kts 283°
2026-05-04 13:09 29.29472 33.76836 29956 ft 386 kts 283°
2026-05-04 13:09 29.31144 33.70989 29957 ft 387 kts 283°
2026-05-04 13:10 29.32815 33.65138 29977 ft 386 kts 283°
2026-05-04 13:10 29.34481 33.59300 29977 ft 385 kts 283°
2026-05-04 13:11 29.36148 33.53462 29976 ft 385 kts 283°
2026-05-04 13:11 29.37807 33.47616 29974 ft 385 kts 283°
2026-05-04 13:12 29.39463 33.41772 29974 ft 385 kts 283°
2026-05-04 13:12 29.41119 33.35930 29971 ft 385 kts 283°
2026-05-04 13:13 29.42779 33.30089 29970 ft 385 kts 283°
2026-05-04 13:13 29.44419 33.24278 29964 ft 386 kts 283°
2026-05-04 13:14 29.46068 33.18423 29965 ft 386 kts 283°
2026-05-04 13:14 29.47715 33.12562 29974 ft 386 kts 283°
2026-05-04 13:15 29.49355 33.06704 29971 ft 385 kts 283°
2026-05-04 13:15 29.51000 33.00846 29972 ft 385 kts 283°
2026-05-04 13:16 29.52636 32.94986 29869 ft 386 kts 283°
2026-05-04 13:16 29.53454 32.92055 29586 ft 386 kts 283°
2026-05-04 13:16 29.54274 32.89119 29312 ft 386 kts 283°
2026-05-04 13:16 29.55095 32.86181 29041 ft 386 kts 283°
2026-05-04 13:17 29.55913 32.83249 28763 ft 385 kts 283°
2026-05-04 13:17 29.56725 32.80328 28505 ft 383 kts 283°
2026-05-04 13:17 29.57531 32.77417 28240 ft 382 kts 283°
2026-05-04 13:17 29.58334 32.74515 27981 ft 380 kts 283°
2026-05-04 13:18 29.59135 32.71628 27726 ft 379 kts 283°
2026-05-04 13:18 29.59935 32.68747 27469 ft 377 kts 283°
2026-05-04 13:18 29.60683 32.65867 27216 ft 375 kts 282°
2026-05-04 13:18 29.61358 32.62982 26961 ft 373 kts 281°
2026-05-04 13:19 29.61994 32.60101 26742 ft 370 kts 281°
2026-05-04 13:19 29.62614 32.57241 26495 ft 368 kts 281°
2026-05-04 13:19 29.63230 32.54397 26249 ft 366 kts 281°
2026-05-04 13:19 29.63853 32.51565 26006 ft 365 kts 281°
2026-05-04 13:20 29.64481 32.48746 25770 ft 364 kts 281°
2026-05-04 13:20 29.65113 32.45933 25533 ft 363 kts 281°
2026-05-04 13:20 29.65747 32.43132 25293 ft 361 kts 281°
2026-05-04 13:20 29.66372 32.40378 25061 ft 360 kts 281°
2026-05-04 13:21 29.67004 32.37596 24836 ft 359 kts 281°
2026-05-04 13:21 29.67633 32.34817 24609 ft 358 kts 281°
2026-05-04 13:21 29.68255 32.32051 24385 ft 357 kts 282°
2026-05-04 13:21 29.68875 32.29290 24164 ft 356 kts 282°
2026-05-04 13:22 29.69492 32.26542 23936 ft 355 kts 282°
2026-05-04 13:22 29.70108 32.23800 23709 ft 354 kts 282°
2026-05-04 13:22 29.70719 32.21068 23459 ft 352 kts 282°
2026-05-04 13:22 29.71327 32.18343 23199 ft 351 kts 282°
2026-05-04 13:23 29.71934 32.15630 22927 ft 350 kts 282°
2026-05-04 13:23 29.72539 32.12927 22664 ft 348 kts 282°
2026-05-04 13:23 29.73141 32.10232 22403 ft 347 kts 282°
2026-05-04 13:23 29.73740 32.07547 22146 ft 346 kts 282°
2026-05-04 13:24 29.74338 32.04869 21903 ft 345 kts 282°
2026-05-04 13:24 29.74932 32.02199 21639 ft 344 kts 282°
2026-05-04 13:24 29.75522 31.99536 21399 ft 343 kts 282°
2026-05-04 13:25 29.76687 31.94271 20752 ft 335 kts 282°
2026-05-04 13:25 29.77261 31.91684 20288 ft 333 kts 282°
2026-05-04 13:25 29.77833 31.89115 19833 ft 330 kts 283°
2026-05-04 13:25 29.78650 31.86647 19367 ft 332 kts 293°
2026-05-04 13:26 29.79896 31.84395 18876 ft 335 kts 301°
2026-05-04 13:26 29.81284 31.82248 18370 ft 334 kts 301°
2026-05-04 13:26 29.82669 31.80101 17801 ft 332 kts 301°
2026-05-04 13:26 29.84039 31.77972 17275 ft 330 kts 302°
2026-05-04 13:27 29.85397 31.75859 16756 ft 327 kts 302°
2026-05-04 13:27 29.86742 31.73764 16237 ft 324 kts 302°
2026-05-04 13:27 29.88074 31.71682 15721 ft 322 kts 302°
2026-05-04 13:27 29.89479 31.69720 15210 ft 325 kts 312°
2026-05-04 13:28 29.91409 31.68251 14674 ft 335 kts 330°
2026-05-04 13:28 29.93677 31.67609 14138 ft 349 kts 349°
2026-05-04 13:28 29.96136 31.67919 13532 ft 365 kts
2026-05-04 13:28 29.98573 31.68772 12925 ft 366 kts 10°
2026-05-04 13:29 30.00998 31.69644 12336 ft 364 kts 11°
2026-05-04 13:29 30.03412 31.70516 11751 ft 363 kts 11°
2026-05-04 13:29 30.05815 31.71381 11183 ft 362 kts 11°
2026-05-04 13:29 30.08214 31.72240 10616 ft 360 kts 12°
2026-05-04 13:30 30.10558 31.73080 10470 ft 345 kts 12°
2026-05-04 13:30 30.12774 31.73880 10341 ft 320 kts 11°
2026-05-04 13:30 30.14825 31.74619 10115 ft 301 kts 11°
2026-05-04 13:30 30.16795 31.75323 9688 ft 291 kts 11°
2026-05-04 13:31 30.18719 31.76004 9572 ft 290 kts 11°
2026-05-04 13:31 30.20664 31.76688 9125 ft 295 kts 11°
2026-05-04 13:31 30.22633 31.77381 8510 ft 296 kts 12°
2026-05-04 13:31 30.24655 31.77767 7841 ft 295 kts 352°
2026-05-04 13:32 30.26591 31.77068 7198 ft 294 kts 325°
2026-05-04 13:32 30.28002 31.75402 6563 ft 289 kts 299°
2026-05-04 13:32 30.28629 31.73237 5905 ft 282 kts 283°
2026-05-04 13:32 30.29044 31.71035 5240 ft 278 kts 283°
2026-05-04 13:33 30.29449 31.68864 4582 ft 274 kts 283°
2026-05-04 13:33 30.29524 31.66688 3920 ft 272 kts 258°
2026-05-04 13:33 30.28690 31.64735 3274 ft 274 kts 236°
2026-05-04 13:33 30.27872 31.63622 2838 ft 274 kts 231°
2026-05-04 13:34 30.26609 31.62032 2511 ft 259 kts 232°
2026-05-04 13:34 30.25465 31.60532 2374 ft 238 kts 233°
2026-05-04 13:34 30.24430 31.59144 2258 ft 218 kts 233°
2026-05-04 13:34 30.23484 31.57875 2159 ft 199 kts 234°
2026-05-04 13:35 30.22596 31.56684 2135 ft 188 kts 234°
2026-05-04 13:35 30.21056 31.54629 2116 ft 148 kts 234°
2026-05-04 13:35 30.20405 31.53757 2108 ft 140 kts 236°
2026-05-04 13:36 30.19772 31.52907 2108 ft 140 kts 235°
2026-05-04 13:36 30.19135 31.52053 2103 ft 141 kts 235°
2026-05-04 13:36 30.18497 31.51201 2094 ft 140 kts 236°
2026-05-04 13:36 30.17870 31.50364 1994 ft 136 kts 237°
2026-05-04 13:37 30.17250 31.49536 1842 ft 137 kts 237°
2026-05-04 13:37 30.16622 31.48696 1674 ft 140 kts 237°
2026-05-04 13:37 30.15983 31.47843 1495 ft 140 kts 234°
2026-05-04 13:37 30.15348 31.46997 1313 ft 138 kts 236°
2026-05-04 13:38 30.14718 31.46156 1120 ft 139 kts 234°
2026-05-04 13:38 30.14082 31.45307 940 ft 141 kts 237°
2026-05-04 13:38 30.13437 31.44446 765 ft 142 kts 237°
2026-05-04 13:38 30.12796 31.43592 579 ft 139 kts 237°
2026-05-04 13:39 30.12164 31.42750 398 ft 138 kts 236°
2026-05-04 13:39 30.11602 31.41999 389 ft 103 kts 228°
2026-05-04 13:39 30.11243 31.41524 388 ft 54 kts 228°
2026-05-04 13:39 30.11098 31.41334 389 ft 21 kts 230°
2026-05-04 13:40 30.10999 31.41200 389 ft 23 kts 228°
2026-05-04 13:40 30.10903 31.41073 388 ft 16 kts 229°
2026-05-04 13:40 30.10823 31.40968 388 ft 19 kts 229°
2026-05-04 13:40 30.10752 31.40874 387 ft 14 kts 229°
2026-05-04 13:41 30.10726 31.40778 386 ft 12 kts 274°
2026-05-04 13:41 30.10754 31.40717 389 ft 0 kts 312°
2026-05-04 13:41 30.10758 31.40713 389 ft 3 kts 314°
2026-05-04 13:42 30.10827 31.40588 388 ft 13 kts 252°
2026-05-04 13:42 30.10768 31.40500 387 ft 15 kts 227°
2026-05-04 13:42 30.10698 31.40408 386 ft 11 kts 229°
2026-05-04 13:42 30.10667 31.40342 386 ft 10 kts 270°
2026-05-04 13:43 30.10695 31.40269 388 ft 10 kts 278°
2026-05-04 13:43 30.10653 31.40189 384 ft 16 kts 229°
2026-05-04 13:43 30.10577 31.40087 380 ft 16 kts 229°
2026-05-04 13:43 30.10515 31.40005 379 ft 11 kts 229°
2026-05-04 13:44 30.10478 31.39934 379 ft 11 kts 258°
2026-05-04 13:44 30.10521 31.39852 375 ft 15 kts 339°
2026-05-04 13:44 30.10609 31.39824 371 ft 14 kts 346°
2026-05-04 13:44 30.10688 31.39800 370 ft 7 kts 345°
2026-05-04 13:45 30.10744 31.39783 371 ft 9 kts 345°
2026-05-04 13:45 30.10797 31.39767 371 ft 4 kts 346°
2026-05-04 13:45 30.10826 31.39777 370 ft 6 kts 38°
2026-05-04 13:45 30.10842 31.39818 372 ft 5 kts 74°
2026-05-04 13:46 30.10847 31.39840 370 ft 1 kts 75°
2026-05-04 13:46 30.10849 31.39847 370 ft 0 kts 75°